Location: Unspecified
(57.6483°N, 3.3184°W)
Time: 10:41:24
(UTC+00:00)

BlueWalker 3 - Pass Details

Date: 29 January 2026
Orbit: 450 x 461 km, 53.2° (Epoch: 11 February)

Event Time Altitude Azimuth Distance (km) Brightness Sun altitude
Rises 17:26:49 0° 232° (SW) 2,455 7.2 -7.3°
Reaches altitude 10° 17:29:07 10° 220° (SW) 1,583 5.6 -7.6°
Maximum altitude 17:32:13 28° 160° (SSE) 876 3.2 -8.0°
Drops below altitude 10° 17:35:18 10° 99° (E) 1,586 3.9 -8.4°
Enters shadow 17:35:35 - 97° (E) 1,683 4.1 -8.4°
